YAOGAN-41

导读 | 星芒AI

遥感四十一号卫星(YAOGAN-41)是中国研制的一颗遥感卫星,主要用于科学实验、国土资源普查、农作物估产及防灾减灾等领域。该卫星由中国航天科技集团公司研制,于2023年成功发射。它具备高分辨率对地观测能力,能够提供高质量的遥感数据,支持国家在环境监测、城市规划和国防建设等方面的应用需求。

基本信息
目录编号:
58582
目录名称:
YAOGAN-41
国际标识:
2023-197A
轨道中心:
EARTH
卫星名称:
YAOGAN-41
卫星全名:
--
卫星状态:
在轨 (已飞行688 天)
发射日期:
2023-12-15 UTC
国别 :
中国 (CN)
星等 :
--
轨道信息
数据来源 国际轨道数据 AOE轨道数据
星历时间 2025-11-02T20:00:52+0800
11小时前
查看轨道信息
2025-11-03T01:00:00+0800
6小时前
查看轨道信息
半长轴 42165.709km 42165.681km
偏心率 0.001258 0.0012437
轨道倾角 3.563° 3.562°
近地点辐角 204.024° 204.757°
升交点赤经 310.175° 310.174°
平近点角 191.224° 265.479°
近地点 35734.529km 35735.104km
远地点 35840.619km 35839.988km
周期 1436.147分钟 1436.145分钟
每日圈数 1.002683 1.002684
详细信息
使用方式:
暂无
2D轨道图
3D轨道图
轨道高度分析图
轨道倾角分析图
轨道综合分析图
查看轨道综合分析图